TimeEDT,TemperatureF,Dew PointF,Humidity,Sea Level PressureIn,VisibilityMPH,Wind Direction,Wind SpeedMPH,Gust SpeedMPH,PrecipitationIn,Events,Conditions,WindDirDegrees,DateUTC
12:14 AM,60.8,55.4,82,30.25,10.0,ENE,10.4,18.4,N/A,,Overcast,60,2013-05-02 04:14:00
12:27 AM,59.0,55.4,88,30.25,10.0,NE,8.1,-,N/A,,Mostly Cloudy,50,2013-05-02 04:27:00
12:53 AM,60.1,55.0,83,30.24,10.0,NE,9.2,-,N/A,,Overcast,50,2013-05-02 04:53:00
1:28 AM,59.0,55.4,88,30.25,10.0,NE,8.1,-,N/A,,Overcast,50,2013-05-02 05:28:00
1:53 AM,59.0,55.0,87,30.23,10.0,NE,9.2,-,N/A,,Overcast,50,2013-05-02 05:53:00
2:27 AM,59.0,53.6,82,30.24,10.0,NE,9.2,-,N/A,,Overcast,50,2013-05-02 06:27:00
2:53 AM,57.9,55.0,90,30.22,10.0,NE,8.1,-,0.00,Rain,Light Rain,40,2013-05-02 06:53:00
3:28 AM,57.2,55.4,94,30.23,3.0,NNE,10.4,-,0.01,Rain,Light Rain,30,2013-05-02 07:28:00
3:53 AM,57.0,55.9,96,30.22,10.0,NNE,9.2,-,0.01,,Overcast,30,2013-05-02 07:53:00
4:53 AM,57.0,55.0,93,30.20,10.0,NNE,9.2,-,0.00,,Overcast,30,2013-05-02 08:53:00
5:53 AM,57.0,55.0,93,30.20,10.0,NNE,10.4,-,0.00,,Overcast,30,2013-05-02 09:53:00
6:53 AM,57.0,55.0,93,30.22,10.0,NNE,10.4,-,0.02,,Overcast,30,2013-05-02 10:53:00
7:53 AM,57.0,55.0,93,30.23,3.0,NNE,8.1,-,N/A,,Overcast,30,2013-05-02 11:53:00
8:01 AM,55.4,55.4,100,30.25,1.2,NNE,9.2,-,N/A,,Overcast,30,2013-05-02 12:01:00
8:37 AM,57.2,55.4,94,30.25,1.2,NE,9.2,-,0.01,,Overcast,40,2013-05-02 12:37:00
8:53 AM,57.0,55.9,96,30.24,1.2,NNE,9.2,-,0.01,,Overcast,30,2013-05-02 12:53:00
9:30 AM,57.2,55.4,94,30.26,2.5,NE,8.1,-,N/A,,Overcast,50,2013-05-02 13:30:00
9:53 AM,57.9,57.0,97,30.25,2.5,NE,6.9,-,N/A,,Overcast,40,2013-05-02 13:53:00
9:58 AM,57.2,57.2,100,30.26,5.0,NNE,8.1,-,N/A,,Overcast,30,2013-05-02 13:58:00
10:37 AM,57.2,57.2,100,30.27,2.0,NE,8.1,-,N/A,,Overcast,40,2013-05-02 14:37:00
10:53 AM,57.9,57.0,97,30.26,2.0,NE,9.2,-,0.00,,Overcast,40,2013-05-02 14:53:00
11:53 AM,57.9,55.9,93,30.26,2.0,NNE,11.5,-,N/A,,Overcast,30,2013-05-02 15:53:00
12:53 PM,57.0,55.9,96,30.26,1.5,NE,10.4,-,N/A,,Overcast,40,2013-05-02 16:53:00
1:26 PM,57.2,55.4,94,30.27,2.5,NNE,10.4,-,N/A,,Overcast,30,2013-05-02 17:26:00
1:53 PM,57.9,57.0,97,30.25,2.5,NE,12.7,-,N/A,,Overcast,50,2013-05-02 17:53:00
2:53 PM,59.0,55.9,90,30.25,6.0,ENE,11.5,17.3,N/A,,Overcast,60,2013-05-02 18:53:00
3:53 PM,60.1,55.9,86,30.23,10.0,NE,11.5,-,N/A,,Overcast,50,2013-05-02 19:53:00
4:53 PM,59.0,57.0,93,30.22,4.0,NE,9.2,-,N/A,,Overcast,40,2013-05-02 20:53:00
5:53 PM,59.0,57.0,93,30.21,5.0,NNE,10.4,-,N/A,,Overcast,30,2013-05-02 21:53:00
6:53 PM,60.1,57.0,90,30.20,10.0,NE,8.1,-,N/A,,Overcast,40,2013-05-02 22:53:00
7:53 PM,60.1,55.9,86,30.21,10.0,NNE,10.4,-,N/A,,Overcast,30,2013-05-02 23:53:00
8:53 PM,59.0,55.9,90,30.21,10.0,NE,10.4,-,N/A,,Overcast,40,2013-05-03 00:53:00
9:30 PM,59.0,55.4,88,30.22,10.0,NE,11.5,-,N/A,,Overcast,40,2013-05-03 01:30:00
9:53 PM,59.0,55.9,90,30.21,10.0,NE,11.5,-,N/A,,Overcast,40,2013-05-03 01:53:00
10:53 PM,59.0,55.0,87,30.21,10.0,NNE,8.1,-,N/A,,Overcast,30,2013-05-03 02:53:00
11:21 PM,59.0,55.4,88,30.22,10.0,NE,9.2,-,N/A,,Overcast,40,2013-05-03 03:21:00
11:53 PM,57.9,55.9,93,30.20,10.0,NNE,9.2,-,0.00,,Overcast,30,2013-05-03 03:53:00